KJ6HT Weather Reports


Display with metric or nautical units.
time (UTC)temp
F
wind
direction
speed
MPH
gust
MPH
rain 1hr
in
rain 24hr
in
rain mn
in
humidity
%
barometer
mb
20260904144550 67 304 0.0 0.0 0.00 0.00 0.00 82 1012.0
20260904143046 64 303 0.0 0.0 0.00 0.00 0.00 87 1012.0
20260904141544 63 304 0.0 1.0 0.00 0.00 0.00 90 1012.0
20260904140042 61 304 0.0 0.0 0.00 0.00 0.00 92 1011.8
20260904134541 60 304 0.0 0.0 0.00 0.00 0.00 92 1011.8
20260904133045 60 303 0.0 0.0 0.00 0.00 0.00 91 1011.6
20260904131637 60 303 0.0 0.0 0.00 0.00 0.00 91 1011.6
20260904130036 61 303 0.0 0.0 0.00 0.00 0.00 91 1011.6
20260904124534 61 303 0.0 0.0 0.00 0.00 0.00 90 1011.5
20260904123031 61 303 0.0 0.0 0.00 0.00 0.00 89 1011.4
20260904121529 62 303 0.0 0.0 0.00 0.00 0.00 89 1011.3
20260904120027 62 303 0.0 1.0 0.00 0.00 0.00 88 1011.2
20260904114527 63 303 0.0 3.0 0.00 0.00 0.00 88 1011.2
20260904113038 63 308 0.0 0.0 0.00 0.00 0.00 88 1011.2
20260904111534 63 309 0.0 3.0 0.00 0.00 0.00 88 1011.0
20260904110024 63 283 1.0 3.0 0.00 0.00 0.00 88 1011.0
20260904104558 63 309 1.0 2.0 0.00 0.00 0.00 88 1011.1
20260904103023 63 307 0.0 2.0 0.00 0.00 0.00 88 1011.2
20260904101522 63 301 1.0 4.0 0.00 0.00 0.00 88 1011.1
20260904100022 63 310 0.0 3.0 0.00 0.00 0.00 90 1011.1
20260904094530 62 297 0.0 0.0 0.00 0.00 0.00 89 1011.0
20260904093021 62 297 0.0 0.0 0.00 0.00 0.00 88 1011.0
20260904091518 62 296 0.0 0.0 0.00 0.00 0.00 87 1011.0
20260904090016 63 297 0.0 0.0 0.00 0.00 0.00 88 1011.0
20260904084514 63 297 0.0 0.0 0.00 0.00 0.00 87 1011.0
20260904083027 63 297 0.0 0.0 0.00 0.00 0.00 86 1011.1
20260904081511 64 297 0.0 0.0 0.00 0.00 0.00 85 1011.2
20260904080008 65 297 0.0 0.0 0.00 0.00 0.00 85 1011.1
20260904074506 65 297 0.0 1.0 0.00 0.00 0.00 84 1011.1
20260904073006 65 297 0.0 1.0 0.00 0.00 0.00 84 1011.0
20260904071504 65 297 0.0 2.0 0.00 0.00 0.00 83 1011.0
20260904070002 65 288 0.0 0.0 0.00 0.00 0.00 83 1011.0
20260904064605 66 288 0.0 0.0 0.00 0.00 0.00 81 1011.1
20260904063002 66 288 0.0 3.0 0.00 0.00 0.00 81 1011.0
20260904061600 67 286 0.0 2.0 0.00 0.00 0.00 80 1011.0
20260904060114 68 301 2.0 5.0 0.00 0.00 0.00 78 1011.0
20260904054633 69 86 0.0 2.0 0.00 0.00 0.00 75 1011.1
20260904053059 68 290 1.0 5.0 0.00 0.00 0.00 78 1011.0
20260904051557 68 280 1.0 4.0 0.00 0.00 0.00 77 1011.1
20260904050057 68 302 2.0 5.0 0.00 0.00 0.00 77 1011.1
20260904044557 69 323 0.0 4.0 0.00 0.00 0.00 76 1010.9
20260904043103 69 309 1.0 4.0 0.00 0.00 0.00 75 1010.7
20260904041604 69 309 2.0 6.0 0.00 0.00 0.00 74 1010.7
20260904040056 70 291 1.0 4.0 0.00 0.00 0.00 73 1010.5
20260904034555 70 295 1.0 6.0 0.00 0.00 0.00 72 1010.3
20260904033054 71 233 0.0 5.0 0.00 0.00 0.00 71 1010.1
20260904031601 71 232 2.0 6.0 0.00 0.00 0.00 69 1009.8
20260904030054 72 312 3.0 7.0 0.00 0.00 0.00 67 1009.7
20260904024559 73 276 3.0 6.0 0.00 0.00 0.00 65 1009.5
20260904023053 73 329 3.0 8.0 0.00 0.00 0.00 64 1009.4
20260904021553 74 278 3.0 9.0 0.00 0.00 0.00 63 1009.3
20260904020055 74 311 9.0 14.0 0.00 0.00 0.00 62 1009.4
20260904014616 75 297 4.0 12.0 0.00 0.00 0.00 61 1009.4
20260904013105 76 290 8.0 16.0 0.00 0.00 0.00 59 1009.4
20260904011550 77 319 8.0 16.0 0.00 0.00 0.00 57 1009.4
20260904010055 79 299 4.0 12.0 0.00 0.00 0.00 55 1009.2
20260904004549 79 249 5.0 13.0 0.00 0.00 0.00 55 1009.3
20260904003050 80 221 6.0 13.0 0.00 0.00 0.00 54 1009.3
20260904001548 81 243 4.0 14.0 0.00 0.00 0.00 52 1009.3
20260904000049 81 284 6.0 15.0 0.00 0.00 0.00 52 1009.3
20260903234547 82 297 7.0 16.0 0.00 0.00 0.00 51 1009.4
20260903233045 83 278 8.0 15.0 0.00 0.00 0.00 50 1009.4
20260903231543 83 214 5.0 12.0 0.00 0.00 0.00 50 1009.5
20260903230042 84 242 4.0 16.0 0.00 0.00 0.00 49 1009.6
20260903224541 85 292 3.0 12.0 0.00 0.00 0.00 47 1009.7
20260903223042 85 290 4.0 12.0 0.00 0.00 0.00 46 1009.8
20260903221540 85 304 5.0 11.0 0.00 0.00 0.00 45 1009.9
20260903220036 87 292 2.0 9.0 0.00 0.00 0.00 43 1010.1
20260903214540 85 243 3.0 13.0 0.00 0.00 0.00 45 1010.2
20260903213040 85 301 2.0 11.0 0.00 0.00 0.00 45 1010.2
20260903211533 86 229 4.0 12.0 0.00 0.00 0.00 44 1010.4
20260903210030 86 298 4.0 8.0 0.00 0.00 0.00 44 1010.5
20260903204525 84 277 2.0 9.0 0.00 0.00 0.00 47 1010.6
20260903203024 83 307 6.0 12.0 0.00 0.00 0.00 46 1011.0
20260903201521 83 323 2.0 10.0 0.00 0.00 0.00 46 1011.1
20260903200018 82 332 4.0 9.0 0.00 0.00 0.00 47 1011.3
20260903194516 82 330 3.0 7.0 0.00 0.00 0.00 47 1011.5
20260903193015 82 195 3.0 8.0 0.00 0.00 0.00 47 1011.8
20260903191520 81 42 3.0 7.0 0.00 0.00 0.00 49 1012.0
20260903190012 79 204 1.0 4.0 0.00 0.00 0.00 49 1012.3
20260903184508 81 27 1.0 5.0 0.00 0.00 0.00 47 1012.6
20260903183005 80 167 2.0 6.0 0.00 0.00 0.00 48 1012.8
20260903181502 79 269 0.0 5.0 0.00 0.00 0.00 48 1013.0
20260903180101 78 250 1.0 5.0 0.00 0.00 0.00 50 1012.9
20260903174559 77 290 0.0 4.0 0.00 0.00 0.00 54 1013.1
20260903173104 77 210 0.0 3.0 0.00 0.00 0.00 53 1013.2
20260903171600 75 291 0.0 2.0 0.00 0.00 0.00 58 1013.4
20260903170051 74 115 1.0 4.0 0.00 0.00 0.00 60 1013.3
20260903164556 72 13 1.0 4.0 0.00 0.00 0.00 62 1013.3
20260903163046 72 107 2.0 4.0 0.00 0.00 0.00 64 1013.3
20260903161543 70 60 1.0 4.0 0.00 0.00 0.00 67 1013.4
20260903160043 70 321 2.0 5.0 0.00 0.00 0.00 69 1013.5
20260903154542 71 284 0.0 2.0 0.00 0.00 0.00 68 1013.5
20260903153040 70 133 0.0 2.0 0.00 0.00 0.00 69 1013.5
20260903151537 69 295 0.0 1.0 0.00 0.00 0.00 73 1013.5
20260903150033 67 295 0.0 2.0 0.00 0.00 0.00 76 1013.5